Location: Gez
(43.0167°N, 0.1000°W)
Time: 13:13:29
(UTC+00:00)

SL-24 R/B - Pass Details

Date: 20 January 2026
Orbit: 679 x 1188 km, 98.2° (Epoch: 10 February)

Event Time Altitude Azimuth Distance (km) Brightness Sun altitude
Rises 02:47:01 0° 23° (NNE) 4,091 9.1 -50.3°
Reaches altitude 10° 02:50:13 10° 35° (NE) 3,123 8.5 -49.7°
Enters shadow 02:53:14 21° 56° (NE) 2,392 7.9 -49.2°
